Regional Weather Roundup
Issued by NWS

Home | Current Version | Previous Version | Text Only | Print | Product List | Glossary On
Versions: 1 2 3 4 5 6 7 8 9 10 11 12 13 14 15 16 17 18 19 20 21 22 23 24 25 26 27 28 29 30 31 32 33 34 35 36 37 38 39 40 41 42 43 44 45 46 47 48 49 50
000
ASUS43 KMKX 240207
RWRWI

WISCONSIN REGIONAL WEATHER ROUNDUP
NATIONAL WEATHER SERVICE MILWAUKEE/SULLIVAN WI
900 PM CDT SAT MAY 23 2015

NOTE: "FAIR" INDICATES FEW OR NO CLOUDS BELOW 12,000 FEET WITH NO
SIGNIFICANT WEATHER AND/OR OBSTRUCTIONS TO VISIBILITY.

WIZ001-002-006>008-014>016-023>028-240300-
NORTHWEST WISCONSIN

CITY           SKY/WX    TMP DP  RH WIND       PRES   REMARKS
SUPERIOR ARPT  PTCLDY    66  44  44 SW7       30.14S
ASHLAND        PTCLDY    62  42  47 SW6       30.15S
HAYWARD        PTCLDY    59  47  64 CALM      30.17F
SIREN          CLOUDY    64  47  54 CALM      30.16S
CUMBERLAND     CLOUDY    61  46  59 CALM      30.16F
RICE LAKE      CLOUDY    62  51  65 CALM      30.18S
CHETEK         CLOUDY    61  51  70 CALM      30.16F
LADYSMITH      MOCLDY    64  48  57 CALM      30.18F
EAU CLAIRE     NOT AVBL
MENOMONIE      CLOUDY    68  45  44 CALM      30.14S
NEW RICHMOND   CLOUDY    60  51  70 NE6       30.15F
OSCEOLA        LGT RAIN  62  53  72 CALM      30.18S
$$

WIZ003>005-009-010-017-018-240300-
NORTH CENTRAL WISCONSIN

CITY           SKY/WX    TMP DP  RH WIND       PRES   REMARKS
MANITOWISH WTR CLOUDY    64  40  40 W6        30.18S
ARBOR VITAE    CLOUDY    65  37  34 CALM      30.19S
WOODRUFF       CLOUDY    65  37  34 CALM      30.19S
RHINELANDER    CLOUDY    64  39  39 CALM      30.19S
EAGLE RIVER    CLOUDY    66  33  30 W7        30.18S
LAND O LAKES   CLOUDY    68  35  29 W7G17     30.19R
PHILLIPS       MOCLDY    62  42  49 CALM      30.17F
TOMAHAWK       CLOUDY    61  43  51 CALM      30.18F
MEDFORD        CLOUDY    63  45  52 CALM      30.17F
MERRILL        CLOUDY    63  49  59 CALM      30.19S
$$

WIZ029-030-035-036-043>047-240300-
CENTRAL WISCONSIN

CITY           SKY/WX    TMP DP  RH WIND       PRES   REMARKS
WAUSAU         MOCLDY    66  43  43 CALM      30.15F
MOSINEE        NOT AVBL
MARSHFIELD     MOCLDY    66  44  45 CALM      30.16F
STEVENS POINT  PTCLDY    65  45  48 CALM      30.17S
WAUPACA        MOCLDY    69  44  39 CALM      30.16S
WAUTOMA        MOCLDY    66  46  48 CALM      30.16S
WISC RAPIDS    MOCLDY    66  42  41 CALM      30.17S
CAMP DOUGLAS   NOT AVBL
$$

WIZ011>013-019>022-031-037>040-048>050-240300-
NORTHEAST WISCONSIN

CITY           SKY/WX    TMP DP  RH WIND       PRES   REMARKS
ANTIGO         CLOUDY    64  44  47 W5        30.19S
SHAWANO        PTCLDY    69  41  36 CALM      30.16S
OCONTO         CLEAR     64  47  54 SE6       30.16R
STURGEON BAY   CLEAR     63  37  39 S10       30.20S
GREEN BAY      PTCLDY    68  41  37 S7        30.17S
MANITOWOC      NOT AVBL
APPLETON       MOCLDY    68  43  40 SE9       30.18R
CLINTONVILLE   PTCLDY    64  43  45 CALM      30.16S
OSHKOSH        MOCLDY    65  44  46 S7        30.17R
$$

WIZ032>034-041-042-053>061-240300-
SOUTHWEST WISCONSIN

CITY           SKY/WX    TMP DP  RH WIND       PRES   REMARKS
LA CROSSE      PTCLDY    69  49  48 S5        30.12S
SPARTA         MOCLDY    64  50  58 CALM      30.15S
VIROQUA        PTCLDY    67  44  41 SE5       30.16S
BOSCOBEL       CLEAR     63  49  60 CALM      30.15R
PRAIRIE DU CHI CLEAR     68  45  44 E3        30.13S
PLATTEVILLE    CLEAR     70  44  39 SE3       30.16S
$$

WIZ056-057-062-063-064-067-068-240300-
SOUTH CENTRAL WISCONSIN

CITY           SKY/WX    TMP DP  RH WIND       PRES   REMARKS
REEDSBURG      MOCLDY    69  45  42 CALM      30.15S
BARABOO/DELLS  MOCLDY    68  40  35 CALM      30.16S
LONE ROCK      NOT AVBL
MINERAL POINT  CLEAR     72  36  26 CALM      30.17S
MADISON        MOCLDY    66  44  45 CALM      30.16S
MIDDLETON      MOCLDY    68  42  39 CALM      30.17S
WATERTOWN      MOCLDY    66  52  59 CALM      30.16S
MONROE         PTCLDY    72  43  35 N3        30.16F
JANESVILLE     PTCLDY    72  41  33 VRB6      30.15F
$$

WIZ051-052-058>065-066-070>072-240300-
SOUTHEAST WISCONSIN

CITY           SKY/WX    TMP DP  RH WIND       PRES   REMARKS
MILWAUKEE      MOCLDY    60  39  45 SE5       30.19F
WAUKESHA       PTCLDY    66  41  39 SE6       30.19F
MILWAUKEE/TIMM CLEAR     66  36  32 SE6       30.20S
RACINE         MOCLDY    60  39  45 S6        30.20F
BURLINGTON     MOCLDY    62  46  55 CALM      30.19R
KENOSHA        MOCLDY    61  41  47 SE7       30.19F
FOND DU LAC    MOCLDY    64  42  44 S8        30.17S
SHEBOYGAN      PTCLDY    59  37  44 S3        30.20S
WEST BEND      PTCLDY    61  39  44 CALM      30.19F
JUNEAU         MOCLDY    71  40  32 CALM      30.18S
$$

LSZ147-162-240300-
LAKE SUPERIOR

STATION/POSITION TIME  TEMP    WIND        PRES    WAVE
                       AIR SEA DIR/SP/G            HT/PER
                 (UTC) (F)     (DEG/KT/KT) (MB)    (FT/S)
W MID LAKE BUOY  0050   50 37  230/  8/  8   N/A     1
DEVILS ISLAND    0100          240/ 18/ 20   N/A
PORT WING        0140   68     200/  5/  9   N/A
SAXON HARBOR     0140   69      CALM  /  5   N/A
$$

LMZ867-665-643>646-240300-
LAKE MICHIGAN

STATION/POSITION TIME  TEMP    WIND        PRES    WAVE
                       AIR SEA DIR/SP/G            HT/PER
                 (UTC) (F)     (DEG/KT/KT) (MB)    (FT/S)
CHAMBERS ISLAND  0100   66     160/  5/ 12   N/A
N MID LAKE BUOY  0050   42 36  200/ 12/ 14   N/A     2/ 4
NORTHPORT PIER   0100   63     190/  8/ 18   N/A
SISTER BAY       0147   64     200/ 17/ 21   N/A
KEWAUNEE LAKESHO 0100   50     150/  3/  6   N/A
SHEBOYGAN LAKESH 0100   59     180/ 10/ 11   N/A
PORT WASHINGTON  0100   56     210/  3/  4   N/A
ATWATER BUOY     0100   52 46  170/  6/  8   N/A
MILWAUKEE LAKESH 0100   56     130/  4/  5   N/A
S MID LAKE BUOY  0050   47 38  100/ 10/ 10   N/A     0
KENOSHA   LAKESH 0000   56     180/  7/  9   N/A
$$

TC  - TEMPERATURE IN CELSIUS
VSB - VISIBILITY IN STATUTE MILES
WCI - WIND CHILL INDEX
HX  - HEAT INDEX



USA.gov is the U.S. government's official web portal to all federal, state and local government web resources and services.